Regional Weather Roundup
Issued by NWS Little Rock, AR

Home | Current Version | Previous Version | Graphics & Text | Print | Product List | Glossary On
Versions: 1 2 3 4 5 6 7 8 9 10 11 12 13 14 15 16 17 18 19 20 21 22 23 24 25 26 27 28 29 30 31 32 33 34 35 36 37 38 39 40 41 42 43 44 45 46 47 48 49 50
000
ASUS44 KLZK 300305
RWRLZK

WEATHER ROUNDUP FOR ARKANSAS
NATIONAL WEATHER SERVICE LITTLE ROCK AR
1000 PM CDT FRI AUG 29 2014

NOTE: "FAIR" INDICATES FEW OR NO CLOUDS BELOW 12,000 FEET WITH NO
SIGNIFICANT WEATHER AND/OR OBSTRUCTIONS TO VISIBILITY.

ARZ001-003-010-029-300400-
NORTHWEST ARKANSAS

CITY           SKY/WX    TMP DP  RH WIND       PRES   REMARKS
FAYETTEVILLE   PTCLDY    71  69  93 CALM      29.95R
FORT SMITH     PTCLDY    75  73  93 E7        29.92R
HARRISON       MOCLDY    72  70  93 SE9       29.97S
BENTONVILLE    CLEAR     73  66  78 CALM      29.96R
ROGERS         CLEAR     73  67  81 S7        29.96R
SILOAM SPGS    PTCLDY    72  63  73 SE5       29.96R
HIGHFILL       CLEAR     73  67  81 S3        29.95R
$$

ARZ004-005-016-300400-
NORTH CENTRAL ARKANSAS

CITY           SKY/WX    TMP DP  RH WIND       PRES   REMARKS
BATESVILLE     CLOUDY    72  72 100 CALM      29.97F
FLIPPIN        CLOUDY    73  66  78 CALM      29.97R
MTN HOME       CLOUDY    73  70  90 SE5       29.96S
$$

ARZ040-041-300400-
WEST CENTRAL ARKANSAS

CITY           SKY/WX    TMP DP  RH WIND       PRES   REMARKS
MENA           CLOUDY    77  73  88 CALM      29.96R
MOUNT IDA      CLOUDY    74  72  93 CALM      29.94R
$$

ARZ009-017-025-026-028-300400-
NORTHEAST ARKANSAS

CITY           SKY/WX    TMP DP  RH WIND       PRES   REMARKS
CORNING        LGT RAIN  73  73 100 SE7       29.99S
JONESBORO      CLOUDY    74  72  93 E3        29.98R
NEWPORT        MOCLDY    75  72  91 CALM      29.99R
WALNUT RIDGE   CLOUDY    73  70  88 SW8       29.99R
BLYTHEVILLE    CLOUDY    75  73  93 NW12      30.00R
$$

ARZ022-023-033-042-044-300400-
CENTRAL ARKANSAS

CITY           SKY/WX    TMP DP  RH WIND       PRES   REMARKS
LITTLE ROCK    CLOUDY    76  69  79 CALM      29.96R
N LITTLE ROCK  CLOUDY    74  72  93 N3        29.96R
JACKSONVILLE   CLOUDY    74  71  91 E3        29.96S
SEARCY         CLOUDY    73  72  97 SW5       29.97F
HOT SPRINGS    CLOUDY    75  74  96 CALM      29.96R
RUSSELLVILLE   CLOUDY    74  72  93 E6        29.96R
CLINTON        LGT RAIN  73  73 100 CALM      29.98S
$$

ARZ036-300400-
EAST ARKANSAS

CITY           SKY/WX    TMP DP  RH WIND       PRES   REMARKS
WEST MEMPHIS     N/A     77  74  90 CALM      29.96R
$$

ARZ050-053-066-070-073-300400-
SOUTHWEST ARKANSAS

CITY           SKY/WX    TMP DP  RH WIND       PRES   REMARKS
ARKADELPHIA    FAIR      79  78  96 CALM      29.94R
CAMDEN         MOCLDY    79  72  78 CALM      29.93R
TEXARKANA      MOCLDY    78  73  84 CALM      29.93R
EL DORADO      PTCLDY    79  72  79 S5        29.94R
DE QUEEN       MOCLDY    74  72  93 CALM      29.90R
$$

ARZ056-057-069-300400-
SOUTHEAST ARKANSAS

CITY           SKY/WX    TMP DP  RH WIND       PRES   REMARKS
PINE BLUFF     MOCLDY    76  73  91 E5        29.94R FOG
STUTTGART      MOCLDY    79  73  83 E3        29.96R
MONTICELLO     MOCLDY    79  74  84 CALM      29.94R

$$





USA.gov is the U.S. government's official web portal to all federal, state and local government web resources and services.